Location: Chuathbaluk
(61.5726°N, 159.2454°W)
Time: 17:40:02
(UTC+00:00)

NOAA 15 - Pass Details

Date: 22 January 2021
Orbit: 798 x 812 km, 98.7° (Epoch: 05 March)

Event Time Altitude Azimuth Distance (km) Brightness Sun altitude
Rises 06:58:18 0° 220° (SW) 3,308 8.0 -32.4°
Reaches altitude 10° 07:01:36 10° 242° (WSW) 2,385 7.5 -32.7°
Maximum altitude 07:04:45 16° 279° (W) 2,010 7.3 -33.1°
Drops below altitude 10° 07:07:56 10° 316° (NW) 2,401 7.8 -33.5°
Sets 07:11:16 0° 338° (NNW) 3,340 8.4 -33.8°
